| time (UTC) | temp C | wind direction | speed KPH | gust KPH | rain 1hr cm | rain 24hr cm | rain mn cm | humidity % | barometer mb |
| 20260904093041 | 13 | 0 | 0.0 | 0.0 | 0.00 | 0.00 | 0.00 | 97 | 1011.0 |
| 20260904091541 | 13 | 0 | 0.0 | 0.0 | 0.00 | 0.00 | 0.00 | 97 | 1010.9 |
| 20260904090044 | 13 | 0 | 0.0 | 0.0 | 0.00 | 0.00 | 0.00 | 96 | 1011.0 |
| 20260904084542 | 13 | 0 | 0.0 | 0.0 | 0.00 | 0.00 | 0.00 | 96 | 1011.1 |
| 20260904083052 | 13 | 0 | 0.0 | 3.2 | 0.00 | 0.00 | 0.00 | 96 | 1011.0 |
| 20260904081543 | 13 | 0 | 0.0 | 0.0 | 0.00 | 0.00 | 0.00 | 96 | 1010.8 |
| 20260904080042 | 13 | 0 | 0.0 | 0.0 | 0.00 | 0.00 | 0.00 | 96 | 1010.7 |
| 20260904074553 | 13 | 0 | 0.0 | 0.0 | 0.00 | 0.00 | 0.00 | 96 | 1010.7 |
| 20260904073048 | 13 | 0 | 0.0 | 0.0 | 0.00 | 0.00 | 0.00 | 96 | 1010.9 |
| 20260904071542 | 13 | 0 | 0.0 | 0.0 | 0.00 | 0.00 | 0.00 | 96 | 1011.0 |
| 20260904070041 | 14 | 0 | 0.0 | 0.0 | 0.00 | 0.00 | 0.00 | 96 | 1011.2 |
| 20260904064540 | 14 | 0 | 0.0 | 0.0 | 0.00 | 0.03 | 0.00 | 96 | 1011.2 |
| 20260904064511 | 15 | 53 | 0.0 | 0.0 | 0.00 | 0.08 | 0.00 | 96 | 1011.2 |
| 20260904063058 | 14 | 0 | 0.0 | 0.0 | 0.00 | 0.03 | 0.00 | 96 | 1011.2 |
| 20260904061541 | 15 | 0 | 0.0 | 0.0 | 0.00 | 0.03 | 0.00 | 96 | 1011.4 |
| 20260904060106 | 15 | 0 | 0.0 | 0.0 | 0.00 | 0.03 | 0.00 | 96 | 1011.4 |
| 20260904054542 | 15 | 0 | 0.0 | 0.0 | 0.00 | 0.10 | 0.00 | 96 | 1011.6 |
| 20260904053044 | 15 | 0 | 0.0 | 0.0 | 0.00 | 0.10 | 0.00 | 96 | 1011.8 |
| 20260904051546 | 15 | 0 | 0.0 | 0.0 | 0.00 | 0.10 | 0.00 | 96 | 1012.0 |
| 20260904050044 | 15 | 0 | 0.0 | 0.0 | 0.00 | 0.10 | 0.00 | 96 | 1012.1 |
| 20260904044549 | 16 | 0 | 0.0 | 0.0 | 0.00 | 0.10 | 0.00 | 96 | 1012.1 |
| 20260904043047 | 16 | 0 | 0.0 | 0.0 | 0.00 | 0.10 | 0.00 | 95 | 1012.1 |
| 20260904041543 | 16 | 0 | 0.0 | 0.0 | 0.00 | 0.10 | 0.00 | 95 | 1012.3 |
| 20260904040043 | 16 | 0 | 0.0 | 0.0 | 0.00 | 0.10 | 0.00 | 96 | 1012.2 |
| 20260904034557 | 16 | 0 | 0.0 | 0.0 | 0.00 | 0.10 | 0.10 | 95 | 1012.3 |
| 20260904033049 | 17 | 0 | 0.0 | 1.6 | 0.00 | 0.10 | 0.10 | 95 | 1012.4 |
| 20260904031544 | 17 | 0 | 0.0 | 0.0 | 0.00 | 0.10 | 0.10 | 95 | 1012.4 |
| 20260904030042 | 17 | 0 | 0.0 | 0.0 | 0.00 | 0.10 | 0.10 | 95 | 1012.5 |
| 20260904024542 | 17 | 0 | 0.0 | 0.0 | 0.00 | 0.10 | 0.10 | 95 | 1012.7 |
| 20260904023041 | 17 | 0 | 0.0 | 0.0 | 0.00 | 0.10 | 0.10 | 95 | 1012.7 |
| 20260904021549 | 17 | 0 | 0.0 | 1.6 | 0.00 | 0.10 | 0.10 | 95 | 1012.4 |
| 20260904020044 | 17 | 0 | 0.0 | 0.0 | 0.00 | 0.10 | 0.10 | 95 | 1012.7 |
| 20260904014547 | 18 | 0 | 0.0 | 0.0 | 0.00 | 0.10 | 0.10 | 95 | 1012.4 |
| 20260904013042 | 18 | 0 | 0.0 | 0.0 | 0.00 | 0.10 | 0.10 | 94 | 1012.7 |
| 20260904011548 | 18 | 0 | 0.0 | 0.0 | 0.00 | 0.10 | 0.10 | 94 | 1012.5 |
| 20260904010051 | 18 | 0 | 0.0 | 0.0 | 0.00 | 0.10 | 0.10 | 94 | 1012.4 |
| 20260904004559 | 18 | 0 | 0.0 | 0.0 | 0.00 | 0.10 | 0.10 | 93 | 1012.3 |
| 20260904003045 | 19 | 0 | 0.0 | 0.0 | 0.00 | 0.10 | 0.10 | 93 | 1012.0 |
| 20260904001541 | 19 | 0 | 0.0 | 0.0 | 0.00 | 0.10 | 0.10 | 92 | 1011.8 |
| 20260904000103 | 20 | 0 | 0.0 | 0.0 | 0.00 | 0.10 | 0.10 | 92 | 1011.7 |
| 20260903234549 | 20 | 0 | 0.0 | 0.0 | 0.00 | 0.10 | 0.10 | 91 | 1011.4 |
| 20260903233047 | 20 | 0 | 0.0 | 0.0 | 0.00 | 0.10 | 0.10 | 91 | 1011.4 |
| 20260903231542 | 21 | 0 | 0.0 | 1.6 | 0.00 | 0.10 | 0.10 | 90 | 1011.4 |
| 20260903230046 | 21 | 0 | 0.0 | 0.0 | 0.00 | 0.10 | 0.10 | 89 | 1011.5 |
| 20260903224543 | 21 | 0 | 0.0 | 3.2 | 0.00 | 0.10 | 0.10 | 88 | 1011.4 |
| 20260903223043 | 22 | 0 | 0.0 | 0.0 | 0.00 | 0.10 | 0.10 | 87 | 1011.5 |
| 20260903221930 | 22 | 53 | 0.0 | 0.0 | 0.00 | 0.08 | 0.10 | 86 | 1011.5 |
| 20260903221543 | 22 | 0 | 0.0 | 3.2 | 0.00 | 0.10 | 0.10 | 85 | 1011.4 |
| 20260903220100 | 22 | 124 | 0.0 | 4.8 | 0.00 | 0.10 | 0.10 | 86 | 1011.9 |
| 20260903214543 | 22 | 0 | 0.0 | 4.8 | 0.00 | 0.10 | 0.10 | 85 | 1011.9 |
| 20260903213042 | 23 | 206 | 0.0 | 6.4 | 0.00 | 0.10 | 0.10 | 82 | 1011.8 |
| 20260903211611 | 23 | 0 | 1.6 | 6.4 | 0.00 | 0.10 | 0.10 | 80 | 1011.8 |
| 20260903210045 | 24 | 337 | 0.0 | 6.4 | 0.00 | 0.10 | 0.10 | 79 | 1011.7 |
| 20260903204542 | 25 | 67 | 1.6 | 8.0 | 0.00 | 0.10 | 0.10 | 76 | 1011.8 |
| 20260903203043 | 25 | 180 | 0.0 | 8.0 | 0.00 | 0.10 | 0.10 | 76 | 1011.9 |
| 20260903201542 | 24 | 0 | 0.0 | 4.8 | 0.00 | 0.10 | 0.10 | 76 | 1012.0 |
| 20260903200048 | 25 | 109 | 1.6 | 4.8 | 0.00 | 0.10 | 0.10 | 75 | 1012.1 |
| 20260903194546 | 25 | 138 | 0.0 | 6.4 | 0.00 | 0.10 | 0.10 | 76 | 1012.2 |
| 20260903193043 | 25 | 213 | 0.0 | 8.0 | 0.00 | 0.10 | 0.10 | 75 | 1012.3 |
| 20260903191542 | 25 | 0 | 0.0 | 4.8 | 0.00 | 0.10 | 0.10 | 78 | 1012.4 |
| 20260903190045 | 24 | 167 | 1.6 | 6.4 | 0.00 | 0.10 | 0.10 | 75 | 1012.4 |
| 20260903184542 | 24 | 0 | 1.6 | 8.0 | 0.00 | 0.10 | 0.10 | 77 | 1012.4 |
| 20260903183042 | 23 | 22 | 0.0 | 11.3 | 0.00 | 0.10 | 0.10 | 78 | 1012.7 |
| 20260903181545 | 22 | 0 | 1.6 | 8.0 | 0.00 | 0.10 | 0.10 | 82 | 1012.9 |
| 20260903180044 | 22 | 249 | 1.6 | 8.0 | 0.00 | 0.10 | 0.10 | 85 | 1013.1 |
| 20260903174600 | 21 | 0 | 0.0 | 11.3 | 0.00 | 0.10 | 0.10 | 87 | 1013.2 |
| 20260903173042 | 21 | 0 | 0.0 | 3.2 | 0.00 | 0.10 | 0.10 | 86 | 1013.4 |
| 20260903171548 | 20 | 188 | 0.0 | 6.4 | 0.00 | 0.10 | 0.10 | 88 | 1013.6 |
| 20260903170105 | 20 | 0 | 0.0 | 6.4 | 0.00 | 0.10 | 0.10 | 88 | 1013.5 |
| 20260903164550 | 19 | 0 | 0.0 | 6.4 | 0.00 | 0.10 | 0.10 | 87 | 1013.6 |
| 20260903163042 | 19 | 0 | 0.0 | 1.6 | 0.00 | 0.10 | 0.10 | 88 | 1013.5 |
| 20260903161543 | 19 | 155 | 1.6 | 8.0 | 0.00 | 0.10 | 0.10 | 88 | 1013.6 |
| 20260903160041 | 18 | 0 | 0.0 | 1.6 | 0.00 | 0.10 | 0.10 | 90 | 1013.9 |
| 20260903154546 | 18 | 0 | 0.0 | 4.8 | 0.00 | 0.10 | 0.10 | 90 | 1014.0 |
| 20260903153050 | 18 | 0 | 0.0 | 4.8 | 0.00 | 0.10 | 0.10 | 92 | 1014.1 |
| 20260903151551 | 17 | 0 | 0.0 | 0.0 | 0.00 | 0.10 | 0.10 | 93 | 1014.5 |
| 20260903150044 | 17 | 0 | 0.0 | 0.0 | 0.00 | 0.10 | 0.10 | 92 | 1014.7 |
| 20260903144546 | 17 | 0 | 0.0 | 1.6 | 0.00 | 0.10 | 0.10 | 93 | 1014.6 |
| 20260903143044 | 17 | 0 | 0.0 | 1.6 | 0.00 | 0.10 | 0.10 | 93 | 1014.7 |
| 20260903141543 | 17 | 0 | 0.0 | 0.0 | 0.00 | 0.10 | 0.10 | 93 | 1015.1 |
| 20260903140639 | 17 | 95 | 0.0 | 0.0 | 0.00 | 0.08 | 0.10 | 93 | 1015.0 |
| 20260903140120 | 17 | 95 | 0.0 | 0.0 | 0.00 | 0.08 | 0.10 | 93 | 1015.0 |
| 20260903140043 | 17 | 0 | 0.0 | 1.6 | 0.00 | 0.10 | 0.10 | 93 | 1015.0 |
| 20260903135607 | 17 | 95 | 0.0 | 0.0 | 0.00 | 0.08 | 0.10 | 93 | 1014.9 |
| 20260903135059 | 17 | 95 | 0.0 | 0.0 | 0.00 | 0.08 | 0.10 | 93 | 1014.9 |
| 20260903134604 | 17 | 174 | 0.0 | 0.0 | 0.00 | 0.08 | 0.10 | 93 | 1014.9 |
| 20260903134544 | 17 | 0 | 0.0 | 3.2 | 0.00 | 0.10 | 0.10 | 93 | 1014.9 |
| 20260903134050 | 17 | 174 | 0.0 | 0.0 | 0.00 | 0.08 | 0.10 | 92 | 1014.8 |
| 20260903133050 | 16 | 0 | 0.0 | 1.6 | 0.00 | 0.10 | 0.10 | 93 | 1014.8 |
| 20260903131553 | 16 | 0 | 0.0 | 4.8 | 0.00 | 0.10 | 0.10 | 93 | 1014.7 |
| 20260903130044 | 16 | 0 | 0.0 | 8.0 | 0.00 | 0.10 | 0.10 | 93 | 1014.9 |
| 20260903124543 | 16 | 91 | 1.6 | 6.4 | 0.00 | 0.10 | 0.10 | 94 | 1014.9 |
| 20260903123044 | 16 | 0 | 0.0 | 4.8 | 0.00 | 0.10 | 0.10 | 95 | 1014.9 |
| 20260903121546 | 16 | 0 | 0.0 | 1.6 | 0.00 | 0.10 | 0.10 | 95 | 1015.0 |
| 20260903120043 | 15 | 0 | 0.0 | 3.2 | 0.00 | 0.10 | 0.10 | 95 | 1015.1 |
| 20260903114542 | 15 | 0 | 0.0 | 3.2 | 0.00 | 0.10 | 0.10 | 95 | 1015.2 |
| 20260903113042 | 15 | 170 | 0.0 | 4.8 | 0.00 | 0.10 | 0.10 | 95 | 1015.3 |
| 20260903111615 | 15 | 0 | 0.0 | 3.2 | 0.00 | 0.10 | 0.10 | 95 | 1015.3 |
| 20260903110043 | 15 | 0 | 0.0 | 3.2 | 0.00 | 0.10 | 0.10 | 95 | 1015.2 |
| 20260903104557 | 15 | 0 | 0.0 | 8.0 | 0.00 | 0.10 | 0.10 | 95 | 1015.0 |
| 20260903103042 | 15 | 17 | 0.0 | 4.8 | 0.00 | 0.10 | 0.10 | 95 | 1014.9 |
| 20260903101545 | 15 | 0 | 0.0 | 3.2 | 0.00 | 0.10 | 0.10 | 95 | 1014.7 |
| 20260903100045 | 15 | 0 | 0.0 | 3.2 | 0.00 | 0.10 | 0.10 | 95 | 1014.9 |
| 20260903094544 | 15 | 0 | 0.0 | 4.8 | 0.00 | 0.10 | 0.10 | 95 | 1015.0 |